GFSGL_prec_precacc_030.txt.gz
Total_Precipitation_Accumulation
0.01 0.00 0.00 0.00 0.00 0.00 0.01 0.01 0.01 0.02 0.02 0.05 0.12 0.08 0.12 0.41 0.62 0.89 0.66 0.63 0.65 0.41 0.25 0.33 0.42 0.57 0.62 0.70 0.64 0.67 0.72 0.74 0.65 0.56 0.48 0.43 0.46 0.56 0.54 0.37 0.26 0.21 0.23
0.01 0.00 0.00 0.00 0.00 0.00 0.00 0.01 0.00 0.01 0.01 0.03 0.10 0.07 0.05 0.08 0.20 0.42 0.25 0.22 0.26 0.22 0.15 0.19 0.23 0.34 0.58 0.75 0.75 0.80 0.93 0.97 0.86 0.85 0.78 0.71 0.64 0.71 0.55 0.45 0.45 0.53 0.45
0.00 0.00 0.00 0.01 0.01 0.01 0.01 0.00 0.00 0.01 0.01 0.00 0.02 0.07 0.09 0.05 0.08 0.09 0.07 0.10 0.17 0.20 0.25 0.26 0.30 0.43 0.56 0.73 0.86 0.91 0.83 0.73 0.63 0.70 0.70 0.80 0.72 0.66 0.54 0.47 0.40 0.39 0.39
0.03 0.00 0.00 0.01 0.02 0.04 0.03 0.01 0.00 0.01 0.00 0.00 0.01 0.01 0.01 0.01 0.01 0.01 0.05 0.23 0.28 0.33 0.42 0.56 0.55 0.68 0.93 0.97 0.85 0.94 1.05 1.08 1.00 0.92 0.92 0.99 0.94 1.04 0.85 0.61 0.50 0.42 0.38
0.07 0.01 0.01 0.00 0.04 0.15 0.13 0.02 0.00 0.00 0.00 0.00 0.00 0.00 0.00 0.00 0.00 0.01 0.01 0.03 0.13 0.25 0.30 0.33 0.39 0.47 0.44 0.38 0.43 0.56 0.74 0.87 0.78 0.65 0.58 0.63 0.75 0.73 0.63 0.50 0.39 0.35 0.32
0.04 0.04 0.06 0.05 0.14 0.27 0.18 0.09 0.01 0.01 0.01 0.01 0.01 0.00 0.00 0.00 0.00 0.00 0.00 0.01 0.03 0.07 0.16 0.30 0.47 0.62 0.53 0.50 0.45 0.37 0.30 0.28 0.28 0.34 0.41 0.43 0.45 0.40 0.47 0.47 0.32 0.22 0.15
0.07 0.20 0.28 0.22 0.22 0.32 0.13 0.12 0.03 0.01 0.00 0.01 0.00 0.00 0.00 0.00 0.00 0.00 0.00 0.00 0.00 0.01 0.03 0.08 0.13 0.19 0.22 0.19 0.19 0.09 0.06 0.05 0.08 0.14 0.15 0.12 0.10 0.14 0.19 0.37 0.52 0.42 0.27
0.33 0.37 0.27 0.31 0.28 0.29 0.16 0.05 0.03 0.00 0.00 0.00 0.00 0.00 0.00 0.00 0.01 0.01 0.03 0.00 0.00 0.00 0.00 0.00 0.02 0.06 0.06 0.02 0.00 0.00 0.00 0.00 0.00 0.03 0.05 0.06 0.05 0.06 0.07 0.12 0.23 0.23 0.26
0.30 0.29 0.20 0.25 0.15 0.11 0.13 0.06 0.02 0.01 0.00 0.00 0.00 0.00 0.00 0.00 0.00 0.00 0.00 0.00 0.00 0.00 0.00 0.00 0.00 0.00 0.00 0.00 0.00 0.00 0.00 0.00 0.00 0.00 0.00 0.00 0.03 0.06 0.01 0.00 0.01 0.03 0.06
0.08 0.05 0.02 0.02 0.02 0.08 0.15 0.09 0.04 0.02 0.00 0.00 0.00 0.00 0.00 0.00 0.00 0.00 0.00 0.00 0.00 0.00 0.00 0.00 0.00 0.00 0.00 0.00 0.00 0.00 0.00 0.00 0.00 0.00 0.00 0.00 0.00 0.00 0.00 0.00 0.00 0.01 0.01
0.07 0.05 0.04 0.05 0.11 0.10 0.09 0.08 0.07 0.02 0.02 0.01 0.01 0.00 0.00 0.00 0.00 0.00 0.00 0.00 0.00 0.00 0.00 0.00 0.00 0.00 0.00 0.00 0.00 0.00 0.00 0.00 0.00 0.00 0.00 0.00 0.00 0.00 0.00 0.02 0.03 0.02 0.03
0.09 0.07 0.08 0.12 0.14 0.12 0.15 0.18 0.14 0.11 0.06 0.04 0.03 0.04 0.05 0.09 0.12 0.07 0.03 0.02 0.02 0.01 0.01 0.01 0.02 0.02 0.00 0.01 0.00 0.01 0.01 0.00 0.00 0.00 0.00 0.00 0.00 0.00 0.00 0.00 0.00 0.00 0.00
0.09 0.12 0.14 0.16 0.30 0.46 0.43 0.48 0.58 0.48 0.36 0.29 0.24 0.17 0.14 0.08 0.08 0.13 0.07 0.03 0.05 0.07 0.08 0.08 0.06 0.02 0.01 0.01 0.01 0.01 0.01 0.00 0.00 0.00 0.00 0.00 0.00 0.00 0.00 0.00 0.00 0.00 0.00
0.05 0.13 0.31 0.57 0.55 0.61 0.76 0.74 0.74 0.71 0.68 0.52 0.33 0.20 0.12 0.06 0.03 0.01 0.01 0.00 0.00 0.01 0.02 0.02 0.00 0.00 0.00 0.00 0.00 0.00 0.00 0.00 0.00 0.00 0.00 0.00 0.00 0.00 0.00 0.00 0.00 0.00 0.00
0.01 0.01 0.03 0.10 0.17 0.23 0.23 0.25 0.28 0.30 0.26 0.12 0.09 0.06 0.05 0.03 0.01 0.01 0.00 0.00 0.00 0.00 0.00 0.00 0.00 0.00 0.00 0.00 0.00 0.00 0.00 0.00 0.00 0.00 0.00 0.00 0.00 0.00 0.00 0.00 0.00 0.00 0.00
0.00 0.00 0.00 0.00 0.00 0.01 0.01 0.04 0.07 0.07 0.10 0.08 0.04 0.02 0.01 0.01 0.00 0.00 0.00 0.00 0.00 0.00 0.00 0.00 0.00 0.00 0.00 0.00 0.00 0.00 0.00 0.00 0.00 0.00 0.00 0.00 0.00 0.00 0.00 0.00 0.00 0.00 0.00
0.00 0.00 0.00 0.00 0.00 0.00 0.00 0.00 0.00 0.00 0.00 0.00 0.00 0.00 0.00 0.00 0.00 0.00 0.00 0.00 0.00 0.00 0.00 0.00 0.00 0.00 0.00 0.00 0.00 0.00 0.00 0.00 0.00 0.00 0.00 0.00 0.00 0.00 0.00 0.00 0.00 0.00 0.00
0.00 0.00 0.00 0.00 0.00 0.00 0.00 0.00 0.00 0.00 0.00 0.00 0.00 0.00 0.00 0.00 0.00 0.00 0.00 0.00 0.00 0.00 0.00 0.00 0.00 0.00 0.00 0.00 0.00 0.00 0.00 0.00 0.00 0.00 0.00 0.00 0.00 0.00 0.00 0.00 0.00 0.00 0.00
0.00 0.00 0.00 0.00 0.00 0.00 0.00 0.00 0.00 0.00 0.00 0.00 0.00 0.00 0.00 0.00 0.00 0.00 0.00 0.00 0.00 0.00 0.00 0.00 0.00 0.00 0.00 0.00 0.00 0.00 0.00 0.00 0.00 0.00 0.00 0.00 0.00 0.00 0.00 0.00 0.00 0.00 0.00
0.00 0.00 0.00 0.00 0.00 0.00 0.00 0.00 0.00 0.00 0.00 0.00 0.00 0.00 0.00 0.00 0.00 0.00 0.00 0.00 0.00 0.00 0.00 0.00 0.00 0.00 0.00 0.00 0.00 0.00 0.00 0.00 0.00 0.00 0.00 0.00 0.00 0.00 0.00 0.00 0.00 0.00 0.00
0.00 0.00 0.00 0.00 0.00 0.00 0.00 0.00 0.00 0.00 0.00 0.00 0.00 0.00 0.00 0.00 0.00 0.00 0.00 0.00 0.00 0.00 0.00 0.00 0.00 0.00 0.00 0.00 0.00 0.00 0.00 0.00 0.00 0.00 0.00 0.00 0.00 0.00 0.00 0.00 0.00 0.00 0.00
0.00 0.00 0.00 0.00 0.00 0.00 0.00 0.00 0.00 0.00 0.00 0.00 0.00 0.00 0.00 0.00 0.00 0.00 0.00 0.00 0.00 0.00 0.00 0.00 0.00 0.00 0.00 0.00 0.00 0.00 0.00 0.00 0.00 0.00 0.00 0.00 0.00 0.00 0.00 0.00 0.00 0.00 0.00
0.00 0.00 0.00 0.00 0.00 0.00 0.00 0.00 0.00 0.00 0.00 0.00 0.00 0.00 0.00 0.00 0.00 0.00 0.00 0.00 0.00 0.00 0.00 0.00 0.00 0.00 0.00 0.00 0.00 0.00 0.00 0.00 0.00 0.00 0.00 0.00 0.00 0.00 0.00 0.00 0.00 0.00 0.00
0.00 0.00 0.00 0.00 0.00 0.00 0.00 0.00 0.00 0.00 0.00 0.00 0.00 0.00 0.00 0.00 0.00 0.00 0.00 0.00 0.00 0.00 0.00 0.00 0.00 0.00 0.00 0.00 0.00 0.00 0.00 0.00 0.00 0.00 0.00 0.00 0.00 0.00 0.00 0.00 0.00 0.00 0.00
0.00 0.00 0.00 0.00 0.00 0.00 0.00 0.00 0.00 0.00 0.00 0.00 0.00 0.00 0.00 0.00 0.00 0.00 0.00 0.00 0.00 0.00 0.00 0.00 0.00 0.00 0.00 0.00 0.00 0.00 0.00 0.00 0.00 0.00 0.00 0.00 0.00 0.00 0.00 0.00 0.00 0.00 0.00
0.00 0.00 0.00 0.00 0.00 0.00 0.00 0.00 0.00 0.00 0.00 0.00 0.00 0.00 0.00 0.00 0.00 0.00 0.00 0.00 0.00 0.00 0.00 0.00 0.00 0.00 0.00 0.00 0.00 0.00 0.00 0.00 0.00 0.00 0.00 0.00 0.00 0.00 0.00 0.00 0.00 0.00 0.00

GFSGL_prec_precacc_033.txt.gz
Total_Precipitation_Accumulation
0.03 0.00 0.00 0.00 0.00 0.00 0.01 0.01 0.01 0.02 0.02 0.05 0.12 0.08 0.12 0.41 0.62 0.89 0.66 0.63 0.65 0.41 0.25 0.33 0.42 0.57 0.62 0.70 0.64 0.73 0.83 0.79 0.67 0.56 0.48 0.43 0.47 0.57 0.54 0.38 0.26 0.21 0.24
0.01 0.00 0.00 0.00 0.00 0.00 0.00 0.01 0.00 0.01 0.01 0.03 0.10 0.07 0.05 0.08 0.20 0.42 0.25 0.22 0.26 0.22 0.15 0.19 0.23 0.34 0.58 0.75 0.75 0.80 0.94 0.98 0.86 0.85 0.78 0.72 0.64 0.72 0.56 0.45 0.45 0.53 0.45
0.01 0.00 0.00 0.01 0.01 0.01 0.01 0.00 0.00 0.01 0.01 0.00 0.02 0.07 0.09 0.05 0.08 0.09 0.07 0.10 0.17 0.20 0.25 0.26 0.30 0.43 0.56 0.73 0.86 0.91 0.83 0.73 0.63 0.70 0.70 0.80 0.72 0.68 0.55 0.48 0.43 0.39 0.39
0.03 0.01 0.00 0.02 0.09 0.10 0.03 0.01 0.00 0.01 0.00 0.00 0.01 0.01 0.01 0.01 0.01 0.01 0.05 0.23 0.28 0.33 0.42 0.56 0.55 0.68 0.93 0.97 0.85 0.94 1.05 1.08 1.00 0.93 0.93 1.00 0.95 1.07 0.88 0.63 0.51 0.43 0.38
0.07 0.02 0.01 0.07 0.13 0.26 0.15 0.02 0.00 0.00 0.00 0.00 0.00 0.00 0.00 0.00 0.00 0.01 0.01 0.03 0.13 0.25 0.30 0.33 0.39 0.47 0.44 0.38 0.43 0.56 0.74 0.87 0.79 0.66 0.59 0.64 0.75 0.74 0.65 0.53 0.41 0.35 0.32
0.04 0.04 0.06 0.13 0.29 0.43 0.24 0.10 0.01 0.01 0.01 0.01 0.01 0.00 0.00 0.00 0.00 0.00 0.00 0.01 0.03 0.07 0.16 0.30 0.47 0.62 0.53 0.50 0.45 0.37 0.30 0.28 0.28 0.34 0.41 0.45 0.46 0.40 0.48 0.48 0.32 0.22 0.15
0.09 0.22 0.45 0.44 0.38 0.49 0.28 0.17 0.03 0.01 0.00 0.01 0.00 0.00 0.00 0.00 0.00 0.00 0.00 0.00 0.00 0.01 0.03 0.08 0.13 0.19 0.22 0.19 0.19 0.09 0.06 0.05 0.08 0.14 0.15 0.13 0.10 0.15 0.19 0.37 0.53 0.42 0.27
0.42 0.43 0.46 0.44 0.41 0.49 0.35 0.08 0.03 0.00 0.00 0.00 0.00 0.00 0.00 0.00 0.01 0.01 0.03 0.00 0.00 0.00 0.00 0.00 0.02 0.06 0.06 0.02 0.00 0.00 0.00 0.00 0.00 0.03 0.05 0.06 0.05 0.06 0.07 0.12 0.23 0.23 0.26
0.45 0.43 0.36 0.41 0.30 0.28 0.24 0.07 0.03 0.01 0.00 0.00 0.00 0.00 0.00 0.00 0.00 0.00 0.00 0.00 0.00 0.00 0.00 0.00 0.00 0.00 0.00 0.00 0.00 0.00 0.00 0.00 0.00 0.00 0.00 0.00 0.03 0.06 0.01 0.00 0.01 0.03 0.06
0.16 0.14 0.14 0.11 0.10 0.15 0.16 0.09 0.05 0.03 0.01 0.00 0.00 0.00 0.00 0.00 0.00 0.00 0.00 0.00 0.00 0.00 0.00 0.00 0.00 0.00 0.00 0.00 0.00 0.00 0.00 0.00 0.00 0.00 0.00 0.00 0.00 0.00 0.00 0.00 0.00 0.01 0.01
0.11 0.14 0.14 0.11 0.13 0.10 0.09 0.09 0.09 0.05 0.02 0.01 0.01 0.00 0.00 0.00 0.00 0.00 0.00 0.00 0.00 0.00 0.00 0.00 0.00 0.00 0.00 0.00 0.00 0.00 0.00 0.00 0.00 0.00 0.00 0.00 0.00 0.00 0.00 0.02 0.03 0.02 0.03
0.17 0.17 0.16 0.17 0.14 0.12 0.15 0.19 0.16 0.11 0.06 0.04 0.03 0.04 0.06 0.09 0.12 0.07 0.03 0.02 0.02 0.01 0.01 0.01 0.02 0.02 0.00 0.01 0.00 0.01 0.01 0.00 0.00 0.00 0.00 0.00 0.00 0.00 0.00 0.00 0.00 0.00 0.00
0.20 0.19 0.19 0.18 0.30 0.46 0.44 0.48 0.58 0.49 0.36 0.29 0.25 0.17 0.14 0.09 0.10 0.14 0.07 0.03 0.05 0.07 0.08 0.08 0.06 0.02 0.01 0.01 0.01 0.01 0.01 0.00 0.00 0.00 0.00 0.00 0.00 0.00 0.00 0.00 0.00 0.00 0.00
0.15 0.19 0.32 0.57 0.55 0.61 0.77 0.74 0.75 0.72 0.69 0.53 0.34 0.21 0.12 0.06 0.03 0.01 0.01 0.01 0.01 0.01 0.02 0.02 0.00 0.00 0.00 0.00 0.00 0.00 0.00 0.00 0.00 0.00 0.00 0.00 0.00 0.00 0.00 0.00 0.00 0.00 0.00
0.04 0.02 0.03 0.10 0.17 0.23 0.23 0.25 0.29 0.31 0.28 0.14 0.10 0.06 0.05 0.03 0.01 0.01 0.00 0.00 0.00 0.00 0.00 0.00 0.00 0.00 0.00 0.00 0.00 0.00 0.00 0.00 0.00 0.00 0.00 0.00 0.00 0.00 0.00 0.00 0.00 0.00 0.00
0.00 0.00 0.00 0.00 0.00 0.01 0.01 0.04 0.07 0.07 0.10 0.08 0.04 0.02 0.01 0.01 0.00 0.00 0.00 0.00 0.00 0.00 0.00 0.00 0.00 0.00 0.00 0.00 0.00 0.00 0.00 0.00 0.00 0.00 0.00 0.00 0.00 0.00 0.00 0.00 0.00 0.00 0.00
0.00 0.00 0.00 0.00 0.00 0.00 0.00 0.00 0.00 0.00 0.00 0.00 0.00 0.00 0.00 0.00 0.00 0.00 0.00 0.00 0.00 0.00 0.00 0.00 0.00 0.00 0.00 0.00 0.00 0.00 0.00 0.00 0.00 0.00 0.00 0.00 0.00 0.00 0.00 0.00 0.00 0.00 0.00
0.00 0.00 0.00 0.00 0.00 0.00 0.00 0.00 0.00 0.00 0.00 0.00 0.00 0.00 0.00 0.00 0.00 0.00 0.00 0.00 0.00 0.00 0.00 0.00 0.00 0.00 0.00 0.00 0.00 0.00 0.00 0.00 0.00 0.00 0.00 0.00 0.00 0.00 0.00 0.00 0.00 0.00 0.00
0.00 0.00 0.00 0.00 0.00 0.00 0.00 0.00 0.00 0.00 0.00 0.00 0.00 0.00 0.00 0.00 0.00 0.00 0.00 0.00 0.00 0.00 0.00 0.00 0.00 0.00 0.00 0.00 0.00 0.00 0.00 0.00 0.00 0.00 0.00 0.00 0.00 0.00 0.00 0.00 0.00 0.00 0.00
0.00 0.00 0.00 0.00 0.00 0.00 0.00 0.00 0.00 0.00 0.00 0.00 0.00 0.00 0.00 0.00 0.00 0.00 0.00 0.00 0.00 0.00 0.00 0.00 0.00 0.00 0.00 0.00 0.00 0.00 0.00 0.00 0.00 0.00 0.00 0.00 0.00 0.00 0.00 0.00 0.00 0.00 0.00
0.00 0.00 0.00 0.00 0.00 0.00 0.00 0.00 0.00 0.00 0.00 0.00 0.00 0.00 0.00 0.00 0.00 0.00 0.00 0.00 0.00 0.00 0.00 0.00 0.00 0.00 0.00 0.00 0.00 0.00 0.00 0.00 0.00 0.00 0.00 0.00 0.00 0.00 0.00 0.00 0.00 0.00 0.00
0.00 0.00 0.00 0.00 0.00 0.00 0.00 0.00 0.00 0.00 0.00 0.00 0.00 0.00 0.00 0.00 0.00 0.00 0.00 0.00 0.00 0.00 0.00 0.00 0.00 0.00 0.00 0.00 0.00 0.00 0.00 0.00 0.00 0.00 0.00 0.00 0.00 0.00 0.00 0.00 0.00 0.00 0.00
0.00 0.00 0.00 0.00 0.00 0.00 0.00 0.00 0.00 0.00 0.00 0.00 0.00 0.00 0.00 0.00 0.00 0.00 0.00 0.00 0.00 0.00 0.00 0.00 0.00 0.00 0.00 0.00 0.00 0.00 0.00 0.00 0.00 0.00 0.00 0.00 0.00 0.00 0.00 0.00 0.00 0.00 0.00
0.00 0.00 0.00 0.00 0.00 0.00 0.00 0.00 0.00 0.00 0.00 0.00 0.00 0.00 0.00 0.00 0.00 0.00 0.00 0.00 0.00 0.00 0.00 0.00 0.00 0.00 0.00 0.00 0.00 0.00 0.00 0.00 0.00 0.00 0.00 0.00 0.00 0.00 0.00 0.00 0.00 0.00 0.00
0.00 0.00 0.00 0.00 0.00 0.00 0.00 0.00 0.00 0.00 0.00 0.00 0.00 0.00 0.00 0.00 0.00 0.00 0.00 0.00 0.00 0.00 0.00 0.00 0.00 0.00 0.00 0.00 0.00 0.00 0.00 0.00 0.00 0.00 0.00 0.00 0.00 0.00 0.00 0.00 0.00 0.00 0.00
0.00 0.00 0.00 0.00 0.00 0.00 0.00 0.00 0.00 0.00 0.00 0.00 0.00 0.00 0.00 0.00 0.00 0.00 0.00 0.00 0.00 0.00 0.00 0.00 0.00 0.00 0.00 0.00 0.00 0.00 0.00 0.00 0.00 0.00 0.00 0.00 0.00 0.00 0.00 0.00 0.00 0.00 0.00

GFSGL_prec_precacc_036.txt.gz
Total_Precipitation_Accumulation
0.10 0.00 0.00 0.00 0.00 0.00 0.01 0.01 0.01 0.02 0.02 0.05 0.12 0.08 0.12 0.41 0.62 0.89 0.66 0.63 0.65 0.41 0.25 0.33 0.42 0.57 0.62 0.70 0.64 0.75 0.86 0.82 0.68 0.57 0.49 0.44 0.47 0.57 0.54 0.38 0.26 0.21 0.24
0.04 0.00 0.00 0.01 0.01 0.00 0.00 0.01 0.00 0.01 0.01 0.03 0.10 0.07 0.05 0.08 0.20 0.42 0.25 0.22 0.26 0.22 0.15 0.19 0.23 0.34 0.58 0.75 0.75 0.80 0.94 1.00 0.88 0.88 0.82 0.73 0.64 0.72 0.56 0.45 0.46 0.53 0.46
0.02 0.00 0.00 0.02 0.06 0.03 0.01 0.00 0.00 0.01 0.01 0.00 0.02 0.07 0.09 0.05 0.08 0.09 0.07 0.10 0.17 0.20 0.25 0.26 0.30 0.43 0.56 0.73 0.86 0.91 0.83 0.73 0.63 0.70 0.70 0.80 0.72 0.68 0.55 0.49 0.44 0.40 0.39
0.03 0.01 0.00 0.02 0.13 0.18 0.07 0.02 0.00 0.01 0.00 0.00 0.01 0.01 0.01 0.01 0.01 0.01 0.05 0.23 0.28 0.33 0.42 0.56 0.55 0.68 0.93 0.97 0.85 0.94 1.05 1.08 1.01 0.93 0.94 1.00 0.95 1.07 0.88 0.64 0.54 0.47 0.40
0.07 0.02 0.01 0.08 0.16 0.35 0.21 0.06 0.01 0.00 0.00 0.00 0.00 0.00 0.00 0.00 0.00 0.01 0.01 0.03 0.13 0.25 0.30 0.33 0.39 0.47 0.44 0.38 0.43 0.56 0.74 0.87 0.79 0.66 0.60 0.65 0.76 0.75 0.66 0.54 0.44 0.37 0.32
0.04 0.05 0.06 0.19 0.45 0.56 0.31 0.18 0.03 0.01 0.01 0.01 0.01 0.00 0.00 0.00 0.00 0.00 0.00 0.01 0.03 0.07 0.16 0.30 0.47 0.62 0.53 0.50 0.45 0.37 0.30 0.28 0.28 0.34 0.41 0.45 0.47 0.42 0.50 0.49 0.35 0.23 0.15
0.15 0.32 0.46 0.48 0.45 0.61 0.32 0.26 0.04 0.01 0.00 0.01 0.00 0.00 0.00 0.00 0.00 0.00 0.00 0.00 0.00 0.01 0.03 0.08 0.13 0.19 0.22 0.19 0.19 0.09 0.06 0.05 0.08 0.14 0.15 0.13 0.10 0.15 0.19 0.38 0.53 0.42 0.27
0.50 0.46 0.55 0.46 0.50 0.59 0.41 0.18 0.07 0.00 0.00 0.00 0.00 0.00 0.00 0.00 0.01 0.01 0.03 0.00 0.00 0.00 0.00 0.00 0.02 0.06 0.06 0.02 0.00 0.00 0.00 0.00 0.00 0.03 0.05 0.06 0.05 0.06 0.07 0.13 0.23 0.23 0.26
0.59 0.53 0.38 0.42 0.35 0.33 0.34 0.12 0.04 0.01 0.00 0.00 0.00 0.00 0.00 0.00 0.00 0.00 0.00 0.00 0.00 0.00 0.00 0.00 0.00 0.00 0.00 0.00 0.00 0.00 0.00 0.00 0.00 0.00 0.00 0.00 0.03 0.06 0.01 0.00 0.01 0.03 0.06
0.26 0.19 0.14 0.11 0.12 0.19 0.19 0.09 0.05 0.03 0.04 0.00 0.00 0.00 0.00 0.00 0.00 0.00 0.00 0.00 0.00 0.00 0.00 0.00 0.00 0.00 0.00 0.00 0.00 0.00 0.00 0.00 0.00 0.00 0.00 0.00 0.00 0.00 0.00 0.00 0.00 0.01 0.01
0.12 0.14 0.14 0.11 0.14 0.11 0.10 0.09 0.09 0.05 0.04 0.01 0.01 0.00 0.00 0.00 0.00 0.00 0.00 0.00 0.00 0.00 0.00 0.00 0.00 0.00 0.00 0.00 0.00 0.00 0.00 0.00 0.00 0.00 0.00 0.00 0.00 0.00 0.00 0.02 0.03 0.02 0.03
0.26 0.24 0.18 0.23 0.18 0.13 0.16 0.19 0.16 0.13 0.07 0.04 0.03 0.04 0.06 0.09 0.12 0.08 0.04 0.02 0.02 0.01 0.01 0.01 0.02 0.02 0.00 0.01 0.00 0.01 0.01 0.00 0.00 0.00 0.00 0.00 0.00 0.00 0.00 0.00 0.00 0.00 0.00
0.28 0.29 0.27 0.26 0.32 0.46 0.44 0.49 0.59 0.50 0.36 0.29 0.25 0.18 0.14 0.09 0.10 0.15 0.08 0.03 0.05 0.07 0.08 0.08 0.06 0.02 0.01 0.01 0.01 0.01 0.01 0.00 0.00 0.00 0.00 0.00 0.00 0.00 0.00 0.00 0.00 0.00 0.00
0.22 0.26 0.37 0.58 0.55 0.62 0.78 0.75 0.75 0.72 0.69 0.53 0.34 0.21 0.12 0.06 0.03 0.01 0.01 0.01 0.01 0.01 0.02 0.02 0.00 0.00 0.00 0.00 0.00 0.00 0.00 0.00 0.00 0.00 0.00 0.00 0.00 0.00 0.00 0.00 0.00 0.00 0.00
0.12 0.06 0.04 0.10 0.17 0.23 0.24 0.27 0.30 0.32 0.29 0.14 0.10 0.07 0.05 0.03 0.01 0.01 0.00 0.00 0.00 0.00 0.00 0.00 0.00 0.00 0.00 0.00 0.00 0.00 0.00 0.00 0.00 0.00 0.00 0.00 0.00 0.00 0.00 0.00 0.00 0.00 0.00
0.00 0.00 0.00 0.00 0.00 0.01 0.01 0.04 0.08 0.08 0.11 0.09 0.05 0.02 0.01 0.01 0.00 0.00 0.00 0.00 0.00 0.00 0.00 0.00 0.00 0.00 0.00 0.00 0.00 0.00 0.00 0.00 0.00 0.00 0.00 0.00 0.00 0.00 0.00 0.00 0.00 0.00 0.00
0.00 0.00 0.00 0.00 0.00 0.00 0.00 0.00 0.00 0.00 0.00 0.00 0.00 0.00 0.00 0.00 0.00 0.00 0.00 0.00 0.00 0.00 0.00 0.00 0.00 0.00 0.00 0.00 0.00 0.00 0.00 0.00 0.00 0.00 0.00 0.00 0.00 0.00 0.00 0.00 0.00 0.00 0.00
0.00 0.00 0.00 0.00 0.00 0.00 0.00 0.00 0.00 0.00 0.00 0.00 0.00 0.00 0.00 0.00 0.00 0.00 0.00 0.00 0.00 0.00 0.00 0.00 0.00 0.00 0.00 0.00 0.00 0.00 0.00 0.00 0.00 0.00 0.00 0.00 0.00 0.00 0.00 0.00 0.00 0.00 0.00
0.00 0.00 0.00 0.00 0.00 0.00 0.00 0.00 0.00 0.00 0.00 0.00 0.00 0.00 0.00 0.00 0.00 0.00 0.00 0.00 0.00 0.00 0.00 0.00 0.00 0.00 0.00 0.00 0.00 0.00 0.00 0.00 0.00 0.00 0.00 0.00 0.00 0.00 0.00 0.00 0.00 0.00 0.00
0.00 0.00 0.00 0.00 0.00 0.00 0.00 0.00 0.00 0.00 0.00 0.00 0.00 0.00 0.00 0.00 0.00 0.00 0.00 0.00 0.00 0.00 0.00 0.00 0.00 0.00 0.00 0.00 0.00 0.00 0.00 0.00 0.00 0.00 0.00 0.00 0.00 0.00 0.00 0.00 0.00 0.00 0.00
0.00 0.00 0.00 0.00 0.00 0.00 0.00 0.00 0.00 0.00 0.00 0.00 0.00 0.00 0.00 0.00 0.00 0.00 0.00 0.00 0.00 0.00 0.00 0.00 0.00 0.00 0.00 0.00 0.00 0.00 0.00 0.00 0.00 0.00 0.00 0.00 0.00 0.00 0.00 0.00 0.00 0.00 0.00
0.00 0.00 0.00 0.00 0.00 0.00 0.00 0.00 0.00 0.00 0.00 0.00 0.00 0.00 0.00 0.00 0.00 0.00 0.00 0.00 0.00 0.00 0.00 0.00 0.00 0.00 0.00 0.00 0.00 0.00 0.00 0.00 0.00 0.00 0.00 0.00 0.00 0.00 0.00 0.00 0.00 0.00 0.00
0.00 0.00 0.00 0.00 0.00 0.00 0.00 0.00 0.00 0.00 0.00 0.00 0.00 0.00 0.00 0.00 0.00 0.00 0.00 0.00 0.00 0.00 0.00 0.00 0.00 0.00 0.00 0.00 0.00 0.00 0.00 0.00 0.00 0.00 0.00 0.00 0.00 0.00 0.00 0.00 0.00 0.00 0.00
0.00 0.00 0.00 0.00 0.00 0.00 0.00 0.00 0.00 0.00 0.00 0.00 0.00 0.00 0.00 0.00 0.00 0.00 0.00 0.00 0.00 0.00 0.00 0.00 0.00 0.00 0.00 0.00 0.00 0.00 0.00 0.00 0.00 0.00 0.00 0.00 0.00 0.00 0.00 0.00 0.00 0.00 0.00
0.00 0.00 0.00 0.00 0.00 0.00 0.00 0.00 0.00 0.00 0.00 0.00 0.00 0.00 0.00 0.00 0.00 0.00 0.00 0.00 0.00 0.00 0.00 0.00 0.00 0.00 0.00 0.00 0.00 0.00 0.00 0.00 0.00 0.00 0.00 0.00 0.00 0.00 0.00 0.00 0.00 0.00 0.00
0.00 0.00 0.00 0.00 0.00 0.00 0.00 0.00 0.00 0.00 0.00 0.00 0.00 0.00 0.00 0.00 0.00 0.00 0.00 0.00 0.00 0.00 0.00 0.00 0.00 0.00 0.00 0.00 0.00 0.00 0.00 0.00 0.00 0.00 0.00 0.00 0.00 0.00 0.00 0.00 0.00 0.00 0.00

GFSGL_prec_precacc_042.txt.gz
Total_Precipitation_Accumulation
0.20 0.00 0.00 0.00 0.00 0.00 0.01 0.01 0.01 0.02 0.02 0.05 0.12 0.09 0.12 0.41 0.62 0.90 0.67 0.64 0.65 0.41 0.25 0.33 0.42 0.58 0.63 0.77 0.84 0.94 0.98 0.90 0.73 0.65 0.57 0.48 0.49 0.59 0.55 0.38 0.26 0.21 0.24
0.07 0.00 0.00 0.01 0.01 0.00 0.00 0.01 0.00 0.01 0.01 0.03 0.10 0.07 0.05 0.08 0.20 0.42 0.25 0.22 0.26 0.22 0.16 0.19 0.23 0.34 0.59 0.75 0.77 0.83 1.14 1.16 0.91 0.98 1.02 0.89 0.73 0.75 0.57 0.45 0.46 0.54 0.46
0.07 0.02 0.01 0.03 0.06 0.03 0.01 0.00 0.00 0.01 0.01 0.00 0.02 0.07 0.09 0.05 0.08 0.09 0.07 0.10 0.17 0.20 0.25 0.27 0.30 0.43 0.57 0.73 0.86 0.91 0.84 0.76 0.64 0.72 0.72 0.81 0.74 0.69 0.55 0.49 0.44 0.41 0.39
0.12 0.08 0.04 0.04 0.14 0.18 0.07 0.02 0.00 0.01 0.00 0.00 0.01 0.01 0.01 0.01 0.01 0.01 0.05 0.23 0.28 0.33 0.42 0.56 0.55 0.68 0.94 0.97 0.86 0.94 1.06 1.09 1.01 0.94 0.94 1.02 0.98 1.08 0.89 0.64 0.54 0.47 0.40
0.13 0.16 0.10 0.14 0.20 0.35 0.21 0.07 0.01 0.00 0.00 0.00 0.00 0.00 0.00 0.00 0.00 0.01 0.01 0.03 0.13 0.25 0.30 0.33 0.39 0.47 0.44 0.38 0.43 0.56 0.75 0.87 0.79 0.67 0.60 0.66 0.77 0.76 0.67 0.54 0.44 0.38 0.32
0.09 0.22 0.22 0.23 0.48 0.59 0.32 0.19 0.03 0.01 0.01 0.01 0.01 0.00 0.00 0.00 0.00 0.00 0.00 0.01 0.03 0.07 0.16 0.30 0.47 0.62 0.53 0.50 0.45 0.37 0.30 0.28 0.28 0.35 0.42 0.45 0.48 0.43 0.50 0.51 0.36 0.24 0.16
0.15 0.42 0.68 0.60 0.53 0.64 0.40 0.27 0.04 0.01 0.00 0.01 0.00 0.00 0.00 0.00 0.00 0.00 0.00 0.00 0.00 0.01 0.03 0.08 0.13 0.19 0.22 0.19 0.19 0.09 0.06 0.05 0.09 0.15 0.16 0.14 0.13 0.16 0.21 0.39 0.54 0.43 0.27
0.56 0.58 0.73 0.61 0.55 0.68 0.57 0.22 0.07 0.00 0.00 0.00 0.00 0.00 0.00 0.00 0.01 0.01 0.03 0.00 0.00 0.00 0.00 0.00 0.02 0.06 0.06 0.02 0.00 0.00 0.00 0.00 0.00 0.03 0.05 0.06 0.05 0.06 0.07 0.14 0.25 0.24 0.27
0.66 0.76 0.64 0.55 0.47 0.53 0.47 0.19 0.06 0.01 0.00 0.00 0.00 0.00 0.00 0.00 0.00 0.00 0.00 0.00 0.00 0.00 0.00 0.00 0.00 0.00 0.00 0.00 0.00 0.00 0.00 0.00 0.00 0.00 0.00 0.00 0.03 0.06 0.01 0.00 0.01 0.04 0.08
0.37 0.33 0.22 0.16 0.27 0.33 0.27 0.14 0.09 0.06 0.04 0.00 0.00 0.00 0.00 0.00 0.00 0.00 0.00 0.00 0.00 0.00 0.00 0.00 0.00 0.00 0.00 0.00 0.00 0.00 0.00 0.00 0.00 0.00 0.00 0.00 0.00 0.00 0.00 0.00 0.00 0.01 0.01
0.16 0.15 0.14 0.11 0.17 0.18 0.15 0.12 0.15 0.09 0.04 0.02 0.01 0.00 0.00 0.00 0.00 0.00 0.00 0.00 0.00 0.00 0.00 0.00 0.00 0.00 0.00 0.00 0.00 0.00 0.00 0.00 0.00 0.00 0.00 0.00 0.00 0.00 0.00 0.02 0.03 0.02 0.03
0.36 0.27 0.20 0.24 0.19 0.17 0.16 0.20 0.18 0.15 0.07 0.04 0.03 0.04 0.06 0.09 0.12 0.08 0.04 0.02 0.02 0.01 0.01 0.01 0.02 0.02 0.00 0.01 0.00 0.01 0.01 0.00 0.00 0.00 0.00 0.00 0.00 0.00 0.00 0.00 0.00 0.00 0.00
0.38 0.39 0.37 0.32 0.40 0.48 0.45 0.49 0.60 0.51 0.37 0.29 0.25 0.18 0.14 0.09 0.10 0.15 0.08 0.04 0.05 0.07 0.08 0.08 0.06 0.02 0.01 0.01 0.01 0.01 0.01 0.00 0.00 0.00 0.00 0.00 0.00 0.00 0.00 0.00 0.00 0.00 0.00
0.34 0.38 0.43 0.67 0.65 0.64 0.78 0.75 0.76 0.73 0.69 0.53 0.35 0.21 0.12 0.06 0.03 0.01 0.01 0.01 0.01 0.01 0.02 0.02 0.00 0.00 0.00 0.00 0.00 0.00 0.00 0.00 0.00 0.00 0.00 0.00 0.00 0.00 0.00 0.00 0.00 0.00 0.00
0.16 0.10 0.06 0.11 0.19 0.23 0.24 0.29 0.31 0.33 0.29 0.14 0.10 0.07 0.05 0.03 0.01 0.01 0.00 0.00 0.00 0.00 0.00 0.00 0.00 0.00 0.00 0.00 0.00 0.00 0.00 0.00 0.00 0.00 0.00 0.00 0.00 0.00 0.00 0.00 0.00 0.00 0.00
0.01 0.00 0.00 0.00 0.00 0.01 0.01 0.06 0.11 0.10 0.12 0.09 0.05 0.02 0.01 0.01 0.00 0.00 0.00 0.00 0.00 0.00 0.00 0.00 0.00 0.00 0.00 0.00 0.00 0.00 0.00 0.00 0.00 0.00 0.00 0.00 0.00 0.00 0.00 0.00 0.00 0.00 0.00
0.00 0.00 0.00 0.00 0.00 0.00 0.00 0.00 0.00 0.01 0.00 0.00 0.00 0.00 0.00 0.00 0.00 0.00 0.00 0.00 0.00 0.00 0.00 0.00 0.00 0.00 0.00 0.00 0.00 0.00 0.00 0.00 0.00 0.00 0.00 0.00 0.00 0.00 0.00 0.00 0.00 0.00 0.00
0.00 0.00 0.00 0.00 0.00 0.00 0.00 0.00 0.00 0.00 0.00 0.00 0.00 0.00 0.00 0.00 0.00 0.00 0.00 0.00 0.00 0.00 0.00 0.00 0.00 0.00 0.00 0.00 0.00 0.00 0.00 0.00 0.00 0.00 0.00 0.00 0.00 0.00 0.00 0.00 0.00 0.00 0.00
0.00 0.00 0.00 0.00 0.00 0.00 0.00 0.00 0.00 0.00 0.00 0.00 0.00 0.00 0.00 0.00 0.00 0.00 0.00 0.00 0.00 0.00 0.00 0.00 0.00 0.00 0.00 0.00 0.00 0.00 0.00 0.00 0.00 0.00 0.00 0.00 0.00 0.00 0.00 0.00 0.00 0.00 0.00
0.00 0.00 0.00 0.00 0.00 0.00 0.00 0.00 0.00 0.00 0.00 0.00 0.00 0.00 0.00 0.00 0.00 0.00 0.00 0.00 0.00 0.00 0.00 0.00 0.00 0.00 0.00 0.00 0.00 0.00 0.00 0.00 0.00 0.00 0.00 0.00 0.00 0.00 0.00 0.00 0.00 0.00 0.00
0.00 0.00 0.00 0.00 0.00 0.00 0.00 0.00 0.00 0.00 0.00 0.00 0.00 0.00 0.00 0.00 0.00 0.00 0.00 0.00 0.00 0.00 0.00 0.00 0.00 0.00 0.00 0.00 0.00 0.00 0.00 0.00 0.00 0.00 0.00 0.00 0.00 0.00 0.00 0.00 0.00 0.00 0.00
0.00 0.00 0.00 0.00 0.00 0.00 0.00 0.00 0.00 0.00 0.00 0.00 0.00 0.00 0.00 0.00 0.00 0.00 0.00 0.00 0.00 0.00 0.00 0.00 0.00 0.00 0.00 0.00 0.00 0.00 0.00 0.00 0.00 0.00 0.00 0.00 0.00 0.00 0.00 0.00 0.00 0.00 0.00
0.00 0.00 0.00 0.00 0.00 0.00 0.00 0.00 0.00 0.00 0.00 0.00 0.00 0.00 0.00 0.00 0.00 0.00 0.00 0.00 0.00 0.00 0.00 0.00 0.00 0.00 0.00 0.00 0.00 0.00 0.00 0.00 0.00 0.00 0.00 0.00 0.00 0.00 0.00 0.00 0.00 0.00 0.00
0.00 0.00 0.00 0.00 0.00 0.00 0.00 0.00 0.00 0.00 0.00 0.00 0.00 0.00 0.00 0.00 0.00 0.00 0.00 0.00 0.00 0.00 0.00 0.00 0.00 0.00 0.00 0.00 0.00 0.00 0.00 0.00 0.00 0.00 0.00 0.00 0.00 0.00 0.00 0.00 0.00 0.00 0.00
0.00 0.00 0.00 0.00 0.00 0.00 0.00 0.00 0.00 0.00 0.00 0.00 0.00 0.00 0.00 0.00 0.00 0.00 0.00 0.00 0.00 0.00 0.00 0.00 0.00 0.00 0.00 0.00 0.00 0.00 0.00 0.00 0.00 0.00 0.00 0.00 0.00 0.00 0.00 0.00 0.00 0.00 0.00
0.00 0.00 0.00 0.00 0.00 0.00 0.00 0.00 0.00 0.00 0.00 0.00 0.00 0.00 0.00 0.00 0.00 0.00 0.00 0.00 0.00 0.00 0.00 0.00 0.00 0.00 0.00 0.00 0.00 0.00 0.00 0.00 0.00 0.00 0.00 0.00 0.00 0.00 0.00 0.00 0.00 0.00 0.00

GFSGL_prec_precacc_045.txt.gz
Total_Precipitation_Accumulation
0.23 0.02 0.00 0.00 0.00 0.00 0.01 0.01 0.01 0.02 0.02 0.05 0.12 0.09 0.12 0.41 0.62 0.90 0.67 0.64 0.65 0.42 0.25 0.34 0.43 0.62 0.70 0.85 0.95 1.09 1.17 1.08 0.76 0.65 0.58 0.52 0.49 0.59 0.56 0.38 0.26 0.21 0.24
0.08 0.05 0.01 0.01 0.01 0.00 0.00 0.01 0.00 0.01 0.01 0.03 0.11 0.08 0.05 0.08 0.20 0.42 0.25 0.22 0.26 0.22 0.16 0.19 0.24 0.34 0.59 0.77 0.79 0.87 1.28 1.33 0.92 0.98 1.05 0.93 0.76 0.76 0.57 0.46 0.46 0.54 0.46
0.07 0.02 0.02 0.03 0.06 0.04 0.01 0.00 0.00 0.01 0.01 0.00 0.02 0.07 0.09 0.05 0.08 0.09 0.07 0.10 0.17 0.20 0.25 0.27 0.30 0.43 0.57 0.73 0.87 0.91 0.84 0.78 0.64 0.72 0.73 0.84 0.76 0.72 0.56 0.49 0.44 0.41 0.39
0.12 0.09 0.05 0.05 0.16 0.19 0.07 0.02 0.00 0.01 0.00 0.00 0.01 0.01 0.01 0.01 0.01 0.01 0.05 0.23 0.28 0.33 0.42 0.56 0.55 0.68 0.94 0.98 0.86 0.95 1.06 1.09 1.01 0.94 0.94 1.03 0.99 1.09 0.90 0.65 0.54 0.47 0.40
0.13 0.17 0.14 0.19 0.25 0.36 0.21 0.07 0.01 0.00 0.00 0.00 0.00 0.00 0.00 0.00 0.00 0.01 0.01 0.03 0.13 0.25 0.30 0.33 0.39 0.47 0.44 0.38 0.43 0.57 0.76 0.88 0.79 0.67 0.61 0.67 0.77 0.76 0.68 0.55 0.44 0.38 0.32
0.09 0.22 0.27 0.31 0.50 0.60 0.32 0.20 0.03 0.01 0.01 0.01 0.01 0.00 0.00 0.00 0.00 0.00 0.00 0.01 0.03 0.07 0.16 0.30 0.47 0.62 0.53 0.50 0.45 0.37 0.31 0.29 0.29 0.35 0.42 0.46 0.48 0.43 0.51 0.51 0.36 0.24 0.16
0.15 0.42 0.75 0.69 0.56 0.66 0.41 0.28 0.04 0.01 0.00 0.01 0.01 0.00 0.00 0.00 0.00 0.00 0.00 0.00 0.00 0.01 0.03 0.08 0.13 0.19 0.22 0.19 0.19 0.09 0.06 0.05 0.09 0.15 0.17 0.15 0.14 0.17 0.21 0.40 0.55 0.45 0.29
0.59 0.66 0.86 0.68 0.63 0.77 0.64 0.26 0.08 0.01 0.00 0.00 0.00 0.00 0.00 0.00 0.01 0.01 0.03 0.00 0.00 0.00 0.00 0.00 0.02 0.06 0.06 0.02 0.00 0.00 0.00 0.00 0.00 0.03 0.05 0.06 0.05 0.06 0.08 0.14 0.26 0.24 0.27
0.69 0.83 0.69 0.59 0.53 0.56 0.50 0.25 0.09 0.02 0.00 0.00 0.00 0.00 0.00 0.00 0.00 0.00 0.00 0.00 0.00 0.00 0.00 0.00 0.00 0.00 0.00 0.00 0.00 0.00 0.00 0.00 0.00 0.00 0.00 0.00 0.03 0.06 0.01 0.00 0.02 0.05 0.09
0.41 0.43 0.30 0.24 0.32 0.33 0.27 0.19 0.16 0.07 0.05 0.00 0.00 0.00 0.00 0.00 0.00 0.00 0.00 0.00 0.00 0.00 0.00 0.00 0.00 0.00 0.00 0.00 0.00 0.00 0.00 0.00 0.00 0.00 0.00 0.00 0.00 0.00 0.00 0.00 0.00 0.01 0.01
0.27 0.30 0.17 0.15 0.20 0.18 0.16 0.16 0.16 0.11 0.07 0.03 0.01 0.00 0.00 0.00 0.00 0.00 0.00 0.00 0.00 0.00 0.00 0.00 0.00 0.00 0.00 0.00 0.00 0.00 0.00 0.00 0.00 0.00 0.00 0.00 0.00 0.00 0.00 0.02 0.03 0.02 0.03
0.39 0.29 0.20 0.24 0.20 0.18 0.18 0.26 0.24 0.22 0.17 0.08 0.03 0.04 0.06 0.09 0.12 0.08 0.04 0.02 0.02 0.01 0.01 0.01 0.02 0.02 0.00 0.01 0.00 0.01 0.01 0.00 0.00 0.00 0.00 0.00 0.00 0.00 0.00 0.00 0.00 0.00 0.00
0.39 0.44 0.44 0.39 0.46 0.50 0.47 0.49 0.61 0.57 0.46 0.33 0.25 0.18 0.14 0.09 0.10 0.15 0.08 0.04 0.05 0.07 0.08 0.08 0.06 0.02 0.01 0.01 0.01 0.01 0.01 0.00 0.00 0.00 0.00 0.00 0.00 0.00 0.00 0.00 0.00 0.00 0.00
0.37 0.43 0.50 0.76 0.77 0.73 0.83 0.77 0.76 0.73 0.71 0.54 0.35 0.21 0.12 0.06 0.03 0.01 0.01 0.01 0.01 0.01 0.02 0.02 0.00 0.00 0.00 0.00 0.00 0.00 0.00 0.00 0.00 0.00 0.00 0.00 0.00 0.00 0.00 0.00 0.00 0.00 0.00
0.17 0.11 0.08 0.14 0.22 0.31 0.32 0.34 0.33 0.34 0.31 0.15 0.10 0.07 0.05 0.03 0.01 0.01 0.00 0.00 0.00 0.00 0.00 0.00 0.00 0.00 0.00 0.00 0.00 0.00 0.00 0.00 0.00 0.00 0.00 0.00 0.00 0.00 0.00 0.00 0.00 0.00 0.00
0.01 0.00 0.00 0.00 0.00 0.02 0.01 0.07 0.13 0.13 0.13 0.09 0.05 0.02 0.01 0.01 0.00 0.00 0.00 0.00 0.00 0.00 0.00 0.00 0.00 0.00 0.00 0.00 0.00 0.00 0.00 0.00 0.00 0.00 0.00 0.00 0.00 0.00 0.00 0.00 0.00 0.00 0.00
0.00 0.00 0.00 0.00 0.00 0.00 0.00 0.00 0.00 0.01 0.01 0.00 0.00 0.00 0.00 0.00 0.00 0.00 0.00 0.00 0.00 0.00 0.00 0.00 0.00 0.00 0.00 0.00 0.00 0.00 0.00 0.00 0.00 0.00 0.00 0.00 0.00 0.00 0.00 0.00 0.00 0.00 0.00
0.00 0.00 0.00 0.00 0.00 0.00 0.00 0.00 0.00 0.00 0.00 0.00 0.00 0.00 0.00 0.00 0.00 0.00 0.00 0.00 0.00 0.00 0.00 0.00 0.00 0.00 0.00 0.00 0.00 0.00 0.00 0.00 0.00 0.00 0.00 0.00 0.00 0.00 0.00 0.00 0.00 0.00 0.00
0.00 0.00 0.00 0.00 0.00 0.00 0.00 0.00 0.00 0.00 0.00 0.00 0.00 0.00 0.00 0.00 0.00 0.00 0.00 0.00 0.00 0.00 0.00 0.00 0.00 0.00 0.00 0.00 0.00 0.00 0.00 0.00 0.00 0.00 0.00 0.00 0.00 0.00 0.00 0.00 0.00 0.00 0.00
0.00 0.00 0.00 0.00 0.00 0.00 0.00 0.00 0.00 0.00 0.00 0.00 0.00 0.00 0.00 0.00 0.00 0.00 0.00 0.00 0.00 0.00 0.00 0.00 0.00 0.00 0.00 0.00 0.00 0.00 0.00 0.00 0.00 0.00 0.00 0.00 0.00 0.00 0.00 0.00 0.00 0.00 0.00
0.00 0.00 0.00 0.00 0.00 0.00 0.00 0.00 0.00 0.00 0.00 0.00 0.00 0.00 0.00 0.00 0.00 0.00 0.00 0.00 0.00 0.00 0.00 0.00 0.00 0.00 0.00 0.00 0.00 0.00 0.00 0.00 0.00 0.00 0.00 0.00 0.00 0.00 0.00 0.00 0.00 0.00 0.00
0.00 0.00 0.00 0.00 0.00 0.00 0.00 0.00 0.00 0.00 0.00 0.00 0.00 0.00 0.00 0.00 0.00 0.00 0.00 0.00 0.00 0.00 0.00 0.00 0.00 0.00 0.00 0.00 0.00 0.00 0.00 0.00 0.00 0.00 0.00 0.00 0.00 0.00 0.00 0.00 0.00 0.00 0.00
0.00 0.00 0.00 0.00 0.00 0.00 0.00 0.00 0.00 0.00 0.00 0.00 0.00 0.00 0.00 0.00 0.00 0.00 0.00 0.00 0.00 0.00 0.00 0.00 0.00 0.00 0.00 0.00 0.00 0.00 0.00 0.00 0.00 0.00 0.00 0.00 0.00 0.00 0.00 0.00 0.00 0.00 0.00
0.00 0.00 0.00 0.00 0.00 0.00 0.00 0.00 0.00 0.00 0.00 0.00 0.00 0.00 0.00 0.00 0.00 0.00 0.00 0.00 0.00 0.00 0.00 0.00 0.00 0.00 0.00 0.00 0.00 0.00 0.00 0.00 0.00 0.00 0.00 0.00 0.00 0.00 0.00 0.00 0.00 0.00 0.00
0.00 0.00 0.00 0.00 0.00 0.00 0.00 0.00 0.00 0.00 0.00 0.00 0.00 0.00 0.00 0.00 0.00 0.00 0.00 0.00 0.00 0.00 0.00 0.00 0.00 0.00 0.00 0.00 0.00 0.00 0.00 0.00 0.00 0.00 0.00 0.00 0.00 0.00 0.00 0.00 0.00 0.00 0.00
0.01 0.00 0.00 0.00 0.00 0.00 0.00 0.00 0.00 0.00 0.00 0.00 0.00 0.00 0.00 0.00 0.00 0.00 0.00 0.00 0.00 0.00 0.00 0.00 0.00 0.00 0.00 0.00 0.00 0.00 0.00 0.00 0.00 0.00 0.00 0.00 0.00 0.00 0.00 0.00 0.00 0.00 0.00

GFSGL_prec_precacc_048.txt.gz
Total_Precipitation_Accumulation
0.40 0.23 0.05 0.00 0.00 0.00 0.01 0.01 0.01 0.02 0.02 0.05 0.12 0.09 0.13 0.41 0.62 0.90 0.67 0.64 0.65 0.42 0.26 0.34 0.43 0.66 0.75 0.91 1.09 1.24 1.33 1.20 0.77 0.65 0.58 0.52 0.50 0.60 0.57 0.39 0.26 0.21 0.24
0.22 0.29 0.10 0.01 0.01 0.00 0.00 0.01 0.00 0.01 0.01 0.03 0.11 0.08 0.05 0.08 0.20 0.42 0.25 0.22 0.27 0.22 0.16 0.20 0.24 0.35 0.59 0.78 0.81 0.90 1.34 1.39 0.92 0.98 1.05 0.94 0.79 0.79 0.58 0.46 0.46 0.54 0.46
0.10 0.10 0.06 0.03 0.06 0.04 0.01 0.00 0.00 0.01 0.01 0.00 0.02 0.07 0.09 0.05 0.08 0.09 0.08 0.10 0.17 0.20 0.25 0.27 0.30 0.44 0.57 0.73 0.87 0.91 0.85 0.78 0.64 0.72 0.73 0.86 0.81 0.76 0.59 0.49 0.44 0.41 0.39
0.12 0.09 0.06 0.06 0.16 0.19 0.07 0.02 0.00 0.01 0.00 0.00 0.01 0.01 0.01 0.01 0.01 0.01 0.05 0.23 0.28 0.33 0.42 0.56 0.55 0.68 0.94 0.98 0.86 0.95 1.06 1.09 1.01 0.94 0.94 1.03 0.99 1.09 0.90 0.65 0.54 0.47 0.40
0.13 0.17 0.15 0.22 0.25 0.36 0.22 0.07 0.01 0.00 0.00 0.00 0.00 0.00 0.00 0.00 0.00 0.01 0.01 0.03 0.13 0.25 0.30 0.33 0.39 0.47 0.44 0.38 0.43 0.57 0.76 0.88 0.79 0.67 0.61 0.68 0.78 0.76 0.68 0.55 0.44 0.38 0.32
0.09 0.22 0.29 0.39 0.52 0.60 0.33 0.20 0.03 0.01 0.01 0.01 0.01 0.00 0.00 0.00 0.00 0.00 0.00 0.01 0.03 0.07 0.16 0.30 0.47 0.62 0.53 0.50 0.45 0.37 0.31 0.30 0.30 0.35 0.42 0.46 0.49 0.44 0.51 0.51 0.36 0.25 0.17
0.15 0.43 0.83 0.74 0.65 0.68 0.41 0.28 0.05 0.01 0.00 0.01 0.01 0.00 0.00 0.00 0.00 0.00 0.00 0.00 0.00 0.01 0.03 0.08 0.13 0.19 0.22 0.19 0.19 0.09 0.06 0.05 0.09 0.16 0.18 0.17 0.15 0.18 0.23 0.42 0.57 0.47 0.30
0.64 0.74 1.04 0.80 0.85 0.93 0.68 0.28 0.08 0.01 0.00 0.00 0.00 0.00 0.00 0.00 0.01 0.01 0.03 0.00 0.00 0.00 0.00 0.00 0.02 0.06 0.06 0.02 0.00 0.00 0.00 0.00 0.00 0.03 0.05 0.06 0.05 0.06 0.08 0.15 0.27 0.25 0.27
0.85 1.01 0.93 0.82 0.76 0.75 0.58 0.30 0.10 0.02 0.01 0.00 0.00 0.00 0.00 0.00 0.00 0.00 0.00 0.00 0.00 0.00 0.00 0.00 0.00 0.00 0.00 0.00 0.00 0.00 0.00 0.00 0.00 0.00 0.00 0.00 0.03 0.06 0.01 0.00 0.03 0.05 0.10
0.47 0.50 0.45 0.61 0.87 0.89 0.57 0.29 0.24 0.09 0.05 0.01 0.00 0.00 0.00 0.00 0.00 0.00 0.00 0.00 0.00 0.00 0.00 0.00 0.00 0.00 0.00 0.00 0.00 0.00 0.00 0.00 0.00 0.00 0.00 0.00 0.00 0.00 0.00 0.00 0.00 0.01 0.01
0.29 0.40 0.55 0.56 0.66 0.62 0.99 0.52 0.29 0.16 0.08 0.04 0.02 0.00 0.00 0.00 0.00 0.00 0.00 0.00 0.00 0.00 0.00 0.00 0.00 0.00 0.00 0.00 0.00 0.00 0.00 0.00 0.00 0.00 0.00 0.00 0.00 0.00 0.00 0.02 0.03 0.02 0.03
0.41 0.31 0.23 0.26 0.24 0.23 0.32 0.54 0.55 0.37 0.21 0.09 0.05 0.05 0.06 0.09 0.12 0.08 0.04 0.02 0.02 0.01 0.01 0.01 0.02 0.02 0.00 0.01 0.00 0.01 0.01 0.00 0.00 0.00 0.00 0.00 0.00 0.00 0.00 0.00 0.00 0.00 0.00
0.39 0.44 0.44 0.40 0.46 0.50 0.47 0.54 0.66 0.62 0.49 0.36 0.29 0.19 0.14 0.09 0.10 0.15 0.08 0.04 0.05 0.07 0.08 0.08 0.06 0.02 0.01 0.01 0.01 0.01 0.01 0.00 0.00 0.00 0.00 0.00 0.00 0.00 0.00 0.00 0.00 0.00 0.00
0.37 0.44 0.51 0.76 0.78 0.74 0.84 0.77 0.76 0.73 0.72 0.57 0.38 0.23 0.12 0.06 0.03 0.01 0.01 0.01 0.01 0.01 0.02 0.02 0.00 0.00 0.00 0.00 0.00 0.00 0.00 0.00 0.00 0.00 0.00 0.00 0.00 0.00 0.00 0.00 0.00 0.00 0.00
0.17 0.11 0.08 0.15 0.23 0.32 0.35 0.39 0.37 0.36 0.36 0.19 0.13 0.08 0.05 0.03 0.01 0.01 0.00 0.00 0.00 0.00 0.00 0.00 0.00 0.00 0.00 0.00 0.00 0.00 0.00 0.00 0.00 0.00 0.00 0.00 0.00 0.00 0.00 0.00 0.00 0.00 0.00
0.01 0.00 0.01 0.00 0.00 0.02 0.01 0.07 0.15 0.16 0.18 0.15 0.09 0.03 0.01 0.01 0.00 0.00 0.00 0.00 0.00 0.00 0.00 0.00 0.00 0.00 0.00 0.00 0.00 0.00 0.00 0.00 0.00 0.00 0.00 0.00 0.00 0.00 0.00 0.00 0.00 0.00 0.00
0.00 0.00 0.00 0.00 0.00 0.00 0.00 0.00 0.01 0.03 0.04 0.03 0.01 0.00 0.00 0.00 0.00 0.00 0.00 0.00 0.00 0.00 0.00 0.00 0.00 0.00 0.00 0.00 0.00 0.00 0.00 0.00 0.00 0.00 0.00 0.00 0.00 0.00 0.00 0.00 0.00 0.00 0.00
0.00 0.00 0.00 0.00 0.00 0.00 0.00 0.00 0.00 0.00 0.00 0.00 0.01 0.00 0.00 0.00 0.00 0.00 0.00 0.00 0.00 0.00 0.00 0.00 0.00 0.00 0.00 0.00 0.00 0.00 0.00 0.00 0.00 0.00 0.00 0.00 0.00 0.00 0.00 0.00 0.00 0.00 0.00
0.00 0.00 0.00 0.00 0.00 0.00 0.00 0.00 0.00 0.00 0.00 0.00 0.00 0.00 0.00 0.00 0.00 0.00 0.00 0.00 0.00 0.00 0.00 0.00 0.00 0.00 0.00 0.00 0.00 0.00 0.00 0.00 0.00 0.00 0.00 0.00 0.00 0.00 0.00 0.00 0.00 0.00 0.00
0.00 0.00 0.00 0.00 0.00 0.00 0.00 0.00 0.00 0.00 0.00 0.00 0.00 0.00 0.00 0.00 0.00 0.00 0.00 0.00 0.00 0.00 0.00 0.00 0.00 0.00 0.00 0.00 0.00 0.00 0.00 0.00 0.00 0.00 0.00 0.00 0.00 0.00 0.00 0.00 0.00 0.00 0.00
0.00 0.00 0.00 0.00 0.00 0.00 0.00 0.00 0.00 0.00 0.00 0.01 0.00 0.00 0.00 0.00 0.00 0.00 0.00 0.00 0.00 0.00 0.00 0.00 0.00 0.00 0.00 0.00 0.00 0.00 0.00 0.00 0.00 0.00 0.00 0.00 0.00 0.00 0.00 0.00 0.00 0.00 0.00
0.00 0.00 0.00 0.00 0.00 0.00 0.00 0.00 0.00 0.00 0.01 0.00 0.00 0.00 0.00 0.00 0.00 0.00 0.00 0.00 0.00 0.00 0.00 0.00 0.00 0.00 0.00 0.00 0.00 0.00 0.00 0.00 0.00 0.00 0.00 0.00 0.00 0.00 0.00 0.00 0.00 0.00 0.00
0.00 0.00 0.00 0.00 0.00 0.00 0.00 0.00 0.00 0.00 0.00 0.00 0.00 0.00 0.00 0.00 0.00 0.00 0.00 0.00 0.00 0.00 0.00 0.00 0.00 0.00 0.00 0.00 0.00 0.00 0.00 0.00 0.00 0.00 0.00 0.00 0.00 0.00 0.00 0.00 0.00 0.00 0.00
0.00 0.00 0.00 0.00 0.00 0.00 0.00 0.00 0.00 0.00 0.00 0.00 0.00 0.00 0.00 0.00 0.00 0.00 0.00 0.00 0.00 0.00 0.00 0.00 0.00 0.00 0.00 0.00 0.00 0.00 0.00 0.00 0.00 0.00 0.00 0.00 0.00 0.00 0.00 0.00 0.00 0.00 0.00
0.00 0.00 0.00 0.00 0.00 0.00 0.00 0.00 0.00 0.01 0.00 0.00 0.00 0.00 0.00 0.00 0.00 0.00 0.00 0.00 0.00 0.00 0.00 0.00 0.00 0.00 0.00 0.00 0.00 0.00 0.00 0.00 0.00 0.00 0.00 0.00 0.00 0.00 0.00 0.00 0.00 0.00 0.00
0.01 0.01 0.00 0.00 0.00 0.00 0.00 0.00 0.00 0.00 0.00 0.00 0.00 0.00 0.01 0.01 0.02 0.02 0.00 0.00 0.00 0.00 0.00 0.00 0.00 0.00 0.00 0.00 0.00 0.00 0.00 0.00 0.00 0.00 0.00 0.00 0.00 0.00 0.00 0.00 0.00 0.00 0.00